Tracking 25534 objects as of 29-Jan-2022
HD Live streaming from Space Station
objects crossing your sky now

THOR ABLESTAR DEB

Track THOR ABLESTAR DEB now!
10-day predictions


NORAD ID: 357
Int'l Code: 1961-015DX
Perigee: 873.0 km
Apogee: 898.9 km
Inclination: 66.8 °
Period: 102.5 minutes
Semi major axis: 7256 km
RCS: 0.059 m2 (small)
Launch date: June 29, 1961
Source: United States (US)
Launch site: AIR FORCE EASTERN TEST RANGE (AFETR)

Note: This is SATELLITE DEBRIS
aabbcc
Your satellite tracking list
Your tracking list is empty




NASA's NSSDC Master Catalog

Two Line Element Set (TLE):
1 00357U 61015DX  22028.89559314  .00000366  00000-0  27919-3 0  9992
2 00357  66.8110 296.6935 0017844 270.7811  89.1230 14.04336109 70774
Source of the keplerian elements: AFSPC